Flag for Canada Weather past 2 weeks in Kugluktuk, Nunavut Territory, Canada

Now
-13 °F

Partly sunny.


Feels Like: -23 °F
Forecast: -15 / -7 °F
Wind: 3 mph from South

Location: Coppermine

Current Time: Mar 28, 2015 at 9:53:13 PM

Latest Report: Mar 28, 2015 at 9:00 PM


Visibility: 15 mi

Pressure: 30.01 "Hg

Humidity: 76%

Dew point: -18 °F

Location of KugluktukLocation

Historic Weather in Kugluktuk — Graph

°F

Kugluktuk temperature yesterday

Maximum temperature yesterday: 9 °F (at 1:00 AM)
Minimum temperature yesterday: -9 °F (at 6:00 AM)
Average temperature yesterday: 0 °F

Past Weeks' High & Low Weather Summary

 TemperatureHumidityPressure
High19 °F (Mar 26, 4:00 PM)92% (Mar 26, 11:00 PM)30.54 "Hg (Mar 26, 11:00 PM)
Low-27 °F (Mar 24, 5:00 AM)63% (Mar 14, 5:00 PM)29.46 "Hg (Mar 14, 5:00 AM)
Average-12 °F74%30.17 "Hg
* Reported Mar 13 8:00 PM — Mar 28 8:00 PM, Kugluktuk, Weather by CustomWeather, © 2015

Note: Actual official high and low records may vary slightly from our data, if they occured in-between our weather recording intervals... More about our weather records

Advertising

Kugluktuk weather history for previous 24 hours

 ConditionsComfort  
Time TempWeatherWind HumidityBarometerVisibility
8:00 PM
Sat, Mar 28
-13 °FBroken clouds.2 mph76%30.00 "Hg15 mi
7:00 PM-11 °FBroken clouds.2 mph70%30.00 "Hg15 mi
6:00 PM-11 °FScattered clouds.2 mph70%30.00 "Hg15 mi
5:00 PM-9 °FSnow flurries. Scattered clouds.6 mph70%29.98 "Hg15 mi
4:00 PM-9 °FSnow flurries. Scattered clouds.5 mph70%29.98 "Hg15 mi
3:00 PM-9 °FSnow flurries. Passing clouds.6 mph70%29.96 "Hg15 mi
2:00 PM-11 °FSnow flurries. Scattered clouds.7 mph76%29.93 "Hg15 mi
1:00 PM-9 °FSnow flurries. Scattered clouds.8 mph70%29.91 "Hg15 mi
12:00 PM-11 °FSnow flurries. Passing clouds.10 mph76%29.88 "Hg15 mi
11:00 AM-11 °FSnow flurries. Passing clouds.8 mph76%29.87 "Hg15 mi
10:00 AM-11 °FSnow flurries. Scattered clouds.9 mph76%29.85 "Hg15 mi
9:00 AM-9 °FLight snow. Passing clouds.7 mph77%29.83 "Hg12 mi
8:00 AM-8 °FLight snow. Passing clouds.8 mph77%29.80 "Hg6 mi
7:00 AM-8 °FLight snow. Mostly cloudy.10 mph84%29.79 "Hg3 mi
6:00 AM-6 °FLight snow. Overcast.9 mph77%29.76 "Hg4 mi
5:00 AM-6 °FLight snow. Mostly cloudy.10 mph77%29.75 "Hg4 mi
4:00 AM-6 °FLight snow. Overcast.10 mph84%29.72 "Hg6 mi
3:00 AM-4 °FLight snow. Mostly cloudy.9 mph77%29.70 "Hg6 mi
2:00 AM-4 °FLight snow. Mostly cloudy.9 mph84%29.68 "Hg8 mi
1:00 AM-4 °FLight snow. Mostly cloudy.8 mph84%29.67 "Hg6 mi
12:00 AM-2 °FLight snow. Mostly cloudy.9 mph84%29.65 "Hg6 mi
11:00 PM
Fri, Mar 27
-2 °FLight snow. Mostly cloudy.10 mph84%29.63 "Hg6 mi
10:00 PM-2 °FLight snow. Partly sunny.12 mph84%29.62 "Hg8 mi
9:00 PM-2 °FLight snow. Broken clouds.10 mph84%29.61 "Hg10 mi
Weather by CustomWeather, © 2015

See weather overviewHow to use our weather pages